This is the latest recevied weather packets stored in our database for station/object N0EDB-13. If no packets are shown the sender has not sent any weather packets the latest 10 day(s).
| Time | Temp. | Humidity | Pressure | Rain* | Wind** | Luminosity | Snow |
|---|---|---|---|---|---|---|---|
| 1777670719 | 18.33° C | 20% | 1483.7 hPa | 0 mm | - | 809 W/m² | - |
| 1777670418 | 18.33° C | 18% | 1482.9 hPa | 0 mm | - | 825 W/m² | - |
| 1777670118 | 18.33° C | 20% | 1483.4 hPa | 0 mm | - | 832 W/m² | - |
| 1777669817 | 18.33° C | 20% | 1483.4 hPa | 0 mm | - | 846 W/m² | - |
| 1777669517 | 18.33° C | 19% | 1483.6 hPa | 0 mm | - | 844 W/m² | - |
| 1777669216 | 17.78° C | 21% | 1485.2 hPa | 0 mm | - | 870 W/m² | - |
| 1777668916 | 17.78° C | 20% | 1485.6 hPa | 0 mm | - | 880 W/m² | - |
| 1777668615 | 17.78° C | 20% | 1484.9 hPa | 0 mm | - | 895 W/m² | - |
| 1777668314 | 17.78° C | 21% | 1484.9 hPa | 0 mm | - | 902 W/m² | - |
| 1777668014 | 17.78° C | 21% | 1485.1 hPa | 0 mm | - | 907 W/m² | - |
| 1777667714 | 17.78° C | 20% | 1486.3 hPa | 0 mm | - | 919 W/m² | - |
| 1777667413 | 17.22° C | 22% | 1486.6 hPa | 0 mm | - | 918 W/m² | - |
| 1777667112 | 17.22° C | 21% | 1487.4 hPa | 0 mm | - | 936 W/m² | - |
| 1777666812 | 17.22° C | 21% | 1487.5 hPa | 0 mm | - | 945 W/m² | - |
| 1777666512 | 17.22° C | 20% | 1487.7 hPa | 0 mm | - | 949 W/m² | - |
| 1777666212 | 17.22° C | 22% | 1487.5 hPa | 0 mm | - | 954 W/m² | - |
| 1777665911 | 17.22° C | 20% | 1487.8 hPa | 0 mm | - | 964 W/m² | - |
| 1777665610 | 16.67° C | 24% | 1488.5 hPa | 0 mm | - | 972 W/m² | - |
| 1777665309 | 17.22° C | 22% | 1488.1 hPa | 0 mm | - | 977 W/m² | - |
| 1777665009 | 16.67° C | 22% | 1488.5 hPa | 0 mm | - | 983 W/m² | - |
| 1777664708 | 17.22° C | 21% | 1487.7 hPa | 0 mm | - | 983 W/m² | - |
| 1777664407 | 16.67° C | 22% | 1488.5 hPa | 0 mm | - | 982 W/m² | - |
| 1777664106 | 16.11° C | 21% | 1490 hPa | 0 mm | - | 994 W/m² | - |
| 1777663805 | 16.11° C | 22% | 1490.4 hPa | 0 mm | - | 996 W/m² | - |
| 1777663504 | 16.11° C | 22% | 1490.8 hPa | 0 mm | - | 999 W/m² | - |
* Rain latest hour (hover to see other rain measurements)
** Current wind speed in m/s (hover to see current wind gust speed)